Wilmington, DE

7:35 PM EDT on May 23, 2018 (GMT -0400)
New Castle County

Weather History for KILG - August, 2014

Change the Weather History Date:

Sunday, August 17, 2014

  Actual Average Record
Temperature  
Mean Temperature 71 °F 75 °F  
Max Temperature 83 °F 84 °F 94 °F (1968)
Min Temperature 59 °F 66 °F 49 °F (1979)
Degree Days  
Heating Degree Days 0 0  
Month to date heating degree days 0 0  
Since 1 June heating degree days 2 15  
Since 1 July heating degree days 0 0  
Cooling Degree Days 6 10  
Month to date cooling degree days 126 186  
Year to date cooling degree days 785 863  
Since 1 June cooling degree days 718 784  
Growing Degree Days 20 (Base 50)    
Moisture  
Dew Point 62 °F    
Average Humidity 76    
Maximum Humidity 97    
Minimum Humidity 54    
Precipitation  
Precipitation T in 0.10 in 3.06 in (1928)
Month to date precipitation 3.39 1.88  
Year to date precipitation 36.69 27.39  
Snow  
Snow 0.00 in 0.00 in 0.00 in (1894)
Month to date snowfall 0.0 0.0  
Since 1 June snowfall 0.0 0.0  
Since 1 July snowfall 0.0 0.0  
Snow Depth 0.00 in    
Sea Level Pressure  
Sea Level Pressure 29.91 in    
Wind  
Wind Speed 6 mph (WNW)    
Max Wind Speed 16 mph    
Max Gust Speed 20 mph    
Visibility 10 miles    
Events Rain    
T = Trace of Precipitation, MM = Missing Value Source: NWS Daily Summary

Daily Weather History Graph

Daily Weather History Graph

Search for Another Location

Airport or City:

Astronomy

Aug. 17, 2014 Rise Set
Actual Time 6:16 AM EDT 7:55 PM EDT
Civil Twilight 5:47 AM EDT 8:24 PM EDT
Nautical Twilight 5:13 AM EDT 8:58 PM EDT
Astronomical Twilight 4:36 AM EDT 9:35 PM EDT
Moon No Moon Rise 1:58 PM EDT (8/17)
Length of Visible Light 14h 36m
Length of Day
13h 39m
Waning Gibbous, 48% of the Moon is Illuminated
Aug 17
Waning Gibbous
Aug 25
New
Sep 2
First Quarter
Sep 8
Full
Sep 15
Last Quarter

Hourly Weather History & Observations

Time (EDT) Temp. Heat Index Dew Point Humidity Pressure Visibility Wind Dir Wind Speed Gust Speed Precip Events Conditions
12:51 AM 64.9 °F - 57.0 °F 75% 29.94 in 10.0 mi WSW 3.5 mph - N/A   Clear
1:51 AM 64.4 °F - 57.2 °F 77% 29.93 in 10.0 mi West 3.5 mph - N/A   Clear
2:51 AM 64.0 °F - 57.9 °F 80% 29.92 in 10.0 mi WSW 4.6 mph - N/A   Clear
3:51 AM 64.0 °F - 59.0 °F 84% 29.92 in 10.0 mi West 3.5 mph - N/A   Clear
4:51 AM 62.6 °F - 59.0 °F 88% 29.90 in 10.0 mi WSW 5.8 mph - N/A   Clear
5:51 AM 60.1 °F - 59.0 °F 96% 29.91 in 10.0 mi NW 4.6 mph - N/A   Clear
7:51 AM 68.0 °F - 60.8 °F 78% 29.93 in 10.0 mi WSW 4.6 mph - N/A   Scattered Clouds
8:51 AM 71.6 °F - 60.8 °F 69% 29.92 in 10.0 mi West 3.5 mph - N/A   Clear
9:51 AM 73.0 °F - 61.0 °F 66% 29.92 in 10.0 mi West 5.8 mph - N/A   Clear
10:51 AM 77.0 °F - 63.0 °F 62% 29.91 in 10.0 mi WNW 9.2 mph - N/A   Partly Cloudy
11:51 AM 73.9 °F - 66.9 °F 79% 29.92 in 9.0 mi WNW 11.5 mph - 0.00 in Rain Light Rain
12:51 PM 75.0 °F - 66.9 °F 76% 29.91 in 10.0 mi WNW 10.4 mph - 0.00 in   Overcast
1:51 PM 75.9 °F - 66.9 °F 74% 29.90 in 10.0 mi WNW 10.4 mph - N/A   Overcast
2:51 PM 78.1 °F - 66.9 °F 68% 29.89 in 10.0 mi WNW 6.9 mph - N/A   Overcast
3:51 PM 81.0 °F 82.5 °F 64.0 °F 56% 29.87 in 10.0 mi West 8.1 mph 17.3 mph N/A   Clear
4:51 PM 80.1 °F 81.5 °F 63.0 °F 56% 29.87 in 10.0 mi WNW 11.5 mph - N/A   Mostly Cloudy
5:51 PM 79.0 °F - 64.0 °F 60% 29.88 in 10.0 mi NW 9.2 mph - N/A   Mostly Cloudy
6:51 PM 78.1 °F - 64.0 °F 62% 29.88 in 10.0 mi NNW 6.9 mph - N/A   Mostly Cloudy
7:51 PM 73.4 °F - 62.6 °F 69% 29.89 in 10.0 mi NW 5.8 mph - N/A   Partly Cloudy
8:51 PM 71.1 °F - 61.0 °F 70% 29.91 in 10.0 mi NNW 6.9 mph - N/A   Clear
9:51 PM 71.6 °F - 60.8 °F 69% 29.93 in 10.0 mi NNW 3.5 mph - N/A   Clear
10:51 PM 64.9 °F - 60.1 °F 84% 29.93 in 10.0 mi NNW 5.8 mph - N/A   Clear
11:51 PM 64.4 °F - 59.0 °F 83% 29.93 in 10.0 mi NNW 6.9 mph - N/A   Clear